Вернуться в каталог

STARLINK-38225

АктивенСвязьSSO
NORAD 100194·PAYLOAD·🇺🇸 United States

Запущен Aug 1, 2026 с Vandenberg Space Force Base

Loading…

Ближайшие Пролёты (ближайшие 24 часа)

TLE

СвежийSource: Space-Track

Эпоха: Sep 14, 2026, 12:13 UTC

1 A0194U 26175R   26257.50937549  .00181629  00000-0  11901-2 0  9990
2 A0194  97.2829  99.6565 0001592  92.2083 267.9365 15.75243351  8231

Отслеживайте STARLINK-38225 в реальном времени с AllMySat

Download on the App Store